This is the latest recevied weather packets stored in our database for station/object W2GUX. If no packets are shown the sender has not sent any weather packets the latest 10 day(s).
| Time | Temp. | Humidity | Pressure | Rain* | Wind** | Luminosity | Snow |
|---|---|---|---|---|---|---|---|
| 1777475103 | 17.78° C | 41% | 1011.3 hPa | 0 mm | - | - | - |
| 1777474804 | 17.78° C | 39% | 1011.3 hPa | 0 mm | - | - | - |
| 1777474504 | 18.33° C | 38% | 1011.4 hPa | 0 mm | - | - | - |
| 1777474203 | 18.33° C | 38% | 1011.6 hPa | 0 mm | - | - | - |
| 1777473903 | 18.33° C | 38% | 1011.5 hPa | 0 mm | - | - | - |
| 1777473604 | 17.78° C | 38% | 1011.5 hPa | 0 mm | - | - | - |
| 1777473304 | 18.33° C | 37% | 1011.4 hPa | 0 mm | - | - | - |
| 1777473004 | 18.33° C | 36% | 1011.4 hPa | 0 mm | - | - | - |
| 1777472703 | 17.78° C | 38% | 1011.4 hPa | 0 mm | - | - | - |
| 1777472404 | 17.78° C | 38% | 1011.5 hPa | 0 mm | - | - | - |
| 1777472104 | 17.22° C | 37% | 1011.7 hPa | 0 mm | - | - | - |
| 1777471803 | 17.22° C | 39% | 1011.6 hPa | 0 mm | - | - | - |
| 1777471503 | 17.22° C | 38% | 1011.8 hPa | 0 mm | - | - | - |
| 1777471204 | 17.22° C | 37% | 1011.7 hPa | 0 mm | - | - | - |
| 1777470904 | 17.22° C | 38% | 1011.7 hPa | 0 mm | - | - | - |
| 1777470603 | 16.67° C | 38% | 1011.7 hPa | 0 mm | - | - | - |
| 1777470303 | 16.67° C | 38% | 1011.8 hPa | 0 mm | - | - | - |
| 1777470003 | 16.67° C | 40% | 1012 hPa | 0 mm | - | - | - |
| 1777469704 | 16.11° C | 40% | 1012.1 hPa | 0 mm | - | - | - |
| 1777469404 | 15.56° C | 40% | 1012.1 hPa | 0 mm | - | - | - |
| 1777469103 | 15.56° C | 40% | 1012.1 hPa | 0 mm | - | - | - |
| 1777468804 | 15.56° C | 40% | 1012 hPa | 0 mm | - | - | - |
| 1777468504 | 15° C | 42% | 1012 hPa | 0 mm | - | - | - |
| 1777468204 | 15° C | 43% | 1012.1 hPa | 0 mm | - | - | - |
| 1777467903 | 14.44° C | 44% | 1012.2 hPa | 0 mm | - | - | - |
* Rain latest hour (hover to see other rain measurements)
** Current wind speed in m/s (hover to see current wind gust speed)